Regional Weather Roundup
Issued by NWS

Home | Current Version | Previous Version | Text Only | Print | Product List | Glossary On
Versions: 1 2 3 4 5 6 7 8 9 10 11 12 13 14 15 16 17 18 19 20 21 22 23 24 25 26 27 28 29 30 31 32 33 34 35 36 37 38 39 40 41 42 43 44 45 46 47 48 49 50
000
ASUS45 KCYS 041310
RWRWY

WYOMING REGIONAL WEATHER ROUNDUP
NATIONAL WEATHER SERVICE CHEYENNE WY
600 AM MST WED MAR 04 2015

NOTE:  "FAIR" INDICATES FEW OR NO CLOUDS BELOW 12,000 FEET
WITH NO SIGNIFICANT WEATHER AND/OR OBSTRUCTIONS TO VISIBILITY.

WYZ001-041400-
YELLOWSTONE NATIONAL PARK

CITY           SKY/WX    TMP DP  RH WIND       PRES   REMARKS
LK YELLOWSTONE   N/A    -21 -27  73 CALM      29.97R
W YELLOWSTONE  NOT AVBL

$$
WYZ002>013-054>058-071-098>099-041400-
NORTHERN WYOMING

CITY           SKY/WX    TMP DP  RH WIND       PRES   REMARKS
JACKSON        FAIR      -6  -8  92 NE5       30.03R WCI -17
CODY           FAIR       0  -8  71 CALM      30.07R
GREYBULL       FAIR      -1  -5  82 CALM      30.18R
WORLAND        FAIR      -1  -7  75 VRB3      30.14S
SHERIDAN       MOCLDY     5  -2  72 N3        30.12S
BUFFALO        FAIR       4  -7  60 N3        30.05R
GILLETTE       FAIR      -2  -9  72 W12       30.09R WCI -20
HULETT         PTSUNNY    3  -4  72 MISG      30.08R
NEWCASTLE      FAIR       1  -6  71 NW6       30.09R WCI -10

$$
WYZ014>020-022>026-101>103-041400-
CENTRAL WYOMING

CITY           SKY/WX    TMP DP  RH WIND       PRES   REMARKS
BIG PINEY      MOCLDY     2  -4  76 E6        29.98R WCI  -9
PINEDALE       FAIR     -13 -17  84 NW5       29.99R WCI -25
DUBOIS         FAIR      -9 -15  77 CALM      29.92R
LANDER         FAIR      -4 -11  72 NE5       30.04R WCI -15
RIVERTON       FAIR      -6 -10  83 MISG      30.07R
CASPER         MOCLDY    -6 -10  83 W8        30.07R WCI -21
DOUGLAS        FAIR      -9 -12  87 NW6       30.09R WCI -22

$$
WYZ021-027>030-104>119-041400-
SOUTHERN WYOMING

CITY           SKY/WX    TMP DP  RH WIND       PRES   REMARKS
EVANSTON       CLOUDY    14  11  87 SW7       29.97R WCI   4
FORT BRIDGER   CLOUDY    14  11  91 W13       29.98R WCI  -1
ROCK SPRINGS   LGT SNOW   0  -3  87 NE3       29.99R FOG
DIXON          FAIR      -2  -6  83 E3        30.02S
RAWLINS        FAIR     -16 -21  78 N8        29.98R WCI -34
SARATOGA       FLURRIES  -4  -6  92 SE3       29.97S
LARAMIE        FAIR      -2  -5  87 S6        29.93R WCI -14
CHEYENNE       CLOUDY     4  -2  76 NW5       30.00R WCI  -5
TORRINGTON     FAIR       6   0  76 NW7       30.11R WCI  -6
PINE BLUFFS    LGT SNOW   7   3  85 SW5       30.09R WCI  -2

$$


USA.gov is the U.S. government's official web portal to all federal, state and local government web resources and services.